[[{"header":{"parameterUnit":"m.s-1","parameterCategory":1,"la1":30.2991,"la2":30.254,"lo1":-89.0895,"lo2":-89.0444,"dy":0.0017,"dx":0.0017,"nx":28,"ny":28,"refTime":"2024-10-06T03:00:00:Z","depth":0,"parameterNumber":2,"parameterNumberName":"U-component_of_WINDS"},"data":[0,0,0,0,0,0,0,0,0,0,0,0,0,0,0,0,0,0,0,0,0,0,0,0,0,0,0,0,0,0,0,0,0,0,0,0,0,0,0,0,0,0,0,0,0,0,0,0,0,0,0,0,0,0,0,0,0,0,-3.7793,-3.7793,0,-3.7828,-3.7829,-3.7829,-3.778,-3.7778,-3.7776,-3.7774,-3.7812,-3.7814,-3.7817,0,0,0,0,0,0,0,0,0,0,0,0,0,-3.7683,-3.7685,-3.7793,-3.7793,-3.7794,-3.7828,-3.7829,-3.7829,-3.778,-3.7778,-3.7776,-3.7774,-3.7811,-3.7814,-3.7817,0,0,0,0,0,0,0,0,0,0,0,0,0,-3.7726,-3.7686,-3.7793,-3.7773,-3.7772,-3.7828,-3.7829,-3.783,-3.778,-3.7778,-3.7775,-3.7773,-3.781,-3.7814,-3.7818,-3.7895,0,0,-3.783,-3.7831,0,0,0,0,0,0,0,0,-3.7724,-3.773,-3.7776,-3.7775,-3.7773,-3.7797,-3.7804,-3.7852,-3.7781,-3.7777,-3.7774,-3.7771,-3.7809,-3.7813,-3.7825,-3.7897,-3.7899,-3.783,-3.7832,-3.7834,-3.7835,0,0,0,0,0,0,0,-3.7721,-3.7728,-3.7807,-3.7776,-3.7775,-3.7763,-3.7766,-3.7813,-3.7808,-3.7777,-3.7774,-3.7779,-3.7808,-3.7822,-3.7826,-3.7899,-3.783,-3.7833,-3.7836,-3.7837,-3.8039,-3.8041,0,0,0,0,0,0,-3.772,-3.7726,-3.7806,-3.7808,-3.7741,-3.7767,-3.7771,-3.7792,-3.7807,-3.7807,-3.7781,-3.7776,-3.7816,-3.7821,-3.7827,-3.7921,-3.7834,-3.7838,-3.784,-3.8036,-3.8039,-3.8042,0,0,0,0,0,0,-3.7718,-3.7727,-3.7804,-3.7766,-3.7775,-3.7772,-3.7796,-3.7794,-3.7808,-3.781,-3.7809,-3.7796,-3.7814,-3.7821,-3.7879,-3.7921,-3.784,-3.7843,-3.8032,-3.8037,-3.8041,-3.8108,0,0,0,0,0,0,-3.7715,-3.7727,-3.7756,-3.7767,-3.7777,-3.7855,-3.7799,-3.7797,-3.7815,-3.7809,-3.7823,-3.7823,-3.7813,-3.7874,-3.7883,-3.7925,-3.7846,-3.8028,-3.8034,-3.8039,-3.8102,-3.8114,-3.8124,0,0,0,0,0,-3.7711,-3.7773,-3.7758,-3.7768,-3.7813,-3.7858,-3.7864,-3.785,-3.7818,-3.7848,-3.7849,-3.7823,-3.7915,-3.788,-3.789,-3.7934,-3.8026,-3.8033,-3.8039,-3.8097,-3.8111,-3.8124,0,0,0,0,0,0,-3.7767,-3.7774,-3.7757,-3.7824,-3.7841,-3.7849,-3.7886,-3.7866,-3.7892,-3.7885,-3.7868,-3.7871,-3.7934,-3.7939,-3.79,-3.8011,-3.7965,-3.7974,-3.8005,-3.8019,-3.8031,-3.8028,-3.785,0,0,0,0,0,-3.7787,-3.7822,-3.7827,-3.7886,-3.7895,-3.7889,-3.7908,-3.7896,-3.7913,-3.792,-3.7925,-3.7942,-3.7975,-3.7997,-3.8028,-3.8102,-3.8106,-3.8137,-3.8149,-3.8158,-3.8167,-3.8208,-3.8223,-3.8064,-3.8064,-3.8064,0,0,-3.7829,-3.7837,-3.786,-3.7897,-3.7908,-3.7946,-3.7895,-3.7937,-3.7965,-3.7926,-3.7981,-3.7986,-3.8004,-3.8071,-3.8101,-3.8078,-3.8211,-3.8166,-3.8174,-3.8177,-3.8217,-3.8232,-3.8245,-3.8069,-3.8068,-3.8067,0,0,-3.7925,-3.7934,-3.7985,-3.7998,-3.8016,-3.8012,-3.8025,-3.8036,-3.8038,-3.8093,-3.8065,-3.8099,-3.8155,-3.817,-3.8185,-3.8289,-3.8266,-3.8299,-3.8358,-3.8399,-3.8412,-3.8423,-3.8462,-3.8476,-3.8307,-3.8307,-3.8307,0,-3.7975,-3.803,-3.8014,-3.8058,-3.8076,-3.8042,-3.8095,-3.8108,-3.8135,-3.8149,-3.8122,-3.8194,-3.8204,-3.8275,-3.83,-3.8313,-3.8328,-3.8298,-3.8411,-3.8422,-3.8432,-3.8469,-3.8484,-3.8311,-3.8311,-3.831,-3.831,0,-3.8091,-3.813,-3.817,-3.8198,-3.8219,-3.8268,-3.826,-3.8284,-3.8271,-3.827,-3.8328,-3.8338,-3.8371,-3.8387,-3.8374,-3.8457,-3.8442,-3.8414,-3.8368,-3.8452,-3.8487,-3.85,-3.8317,-3.8316,-3.8314,-3.8313,0,0,-3.8223,-3.8243,-3.8257,-3.8271,-3.8289,-3.8319,-3.8366,-3.8398,-3.8421,-3.8441,-3.8481,-3.853,-3.8505,-3.8522,-3.851,-3.8546,-3.863,-3.8514,-3.8514,-3.8537,-3.8725,-3.8748,-3.8764,-3.8615,-3.8618,-3.862,-3.8724,0,-3.8321,-3.8402,-3.839,-3.8469,-3.8506,-3.8476,-3.8517,-3.8533,-3.8534,-3.8566,-3.8567,-3.8603,-3.8566,-3.8576,-3.861,-3.8613,-3.8668,-3.8605,-3.8654,-3.8656,-3.8652,-3.8782,-3.8805,-3.8903,-3.8737,-3.874,-3.8741,0,-3.8445,-3.8471,-3.8554,-3.8568,-3.8583,-3.8621,-3.865,-3.8681,-3.8699,-3.8697,-3.8718,-3.87,-3.8749,-3.8701,-3.8768,-3.8726,-3.8745,-3.8749,-3.8753,-3.8758,-3.8705,-3.8792,-3.8934,-3.895,-3.8762,-3.876,-3.8759,0,-3.8536,-3.8591,-3.8648,-3.866,-3.8678,-3.8705,-3.8714,-3.8729,-3.875,-3.8776,-3.879,-3.8821,-3.8839,-3.8864,-3.8856,-3.8821,-3.8926,-3.8877,-3.8927,-3.8928,-3.8952,-3.8951,-3.91,-3.8961,-3.8961,-3.8961,-3.8961,0,-3.8647,-3.8699,-3.8689,-3.8725,-3.8783,-3.8769,-3.8828,-3.8832,-3.8847,-3.8884,-3.8858,-3.8894,-3.888,-3.8915,-3.8909,-3.8967,-3.8974,-3.8976,-3.8974,-3.8979,-3.8979,-3.8992,-3.8986,-3.8965,-3.8964,-3.8963,-3.8963,0,-3.8758,-3.8753,-3.8814,-3.8826,-3.8831,-3.8873,-3.8884,-3.8918,-3.8917,-3.8964,-3.8974,-3.8973,-3.9013,-3.9007,-3.9051,-3.9047,-3.9121,-3.9109,-3.9115,-3.9113,-3.9165,-3.9161,-3.9329,-3.9352,-3.9197,-3.9198,-3.9199,0,-3.883,-3.887,-3.8887,-3.891,-3.892,-3.8957,-3.8979,-3.8966,-3.899,-3.9015,-3.9047,-3.9084,-3.9113,-3.9178,-3.9182,-3.9216,-3.9207,-3.9264,-3.9212,-3.9217,-3.921,-3.9209,-3.9214,-3.9275,-3.9276,-3.9278,-3.9279,0,-3.8959,-3.8955,-3.8987,-3.9019,-3.9045,-3.907,-3.9091,-3.9112,-3.9101,-3.9129,-3.917,-3.9193,-3.9238,-3.9277,-3.9309,-3.9319,-3.9298,-3.9295,-3.9309,-3.9316,-3.9318,-3.932,-3.9145,-3.9292,-3.929,-3.9289,-3.9289,-3.9288,-3.9054,-3.9089,-3.9107,-3.9144,-3.9159,-3.918,-3.9214,-3.9217,-3.9251,-3.9287,-3.9278,-3.9324,-3.9343,-3.9385,-3.9398,-3.9435,-3.9414,-3.9434,-3.9439,-3.9444,-3.9452,-3.9311,-3.944,-3.944,-3.944,-3.9439,-3.9439,0,-3.9183,-3.9194,-3.9228,-3.926,-3.9289,-3.9267,-3.929,-3.9317,-3.9358,-3.9377,-3.9407,-3.9455,-3.9492,-3.9499,-3.9535,-3.9564,-3.9555,-3.9574,-3.9572,-3.9576,-3.9467,-3.9452,-3.958,-3.958,-3.958,-3.958,-3.958,-3.958,-3.9254,-3.9313,-3.9311,-3.9378,-3.9388,-3.9433,-3.9449,-3.9469,-3.9485,-3.9539,-3.957,-3.9575,-3.959,-3.9627,-3.9661,-3.9662,-3.9677,-3.97,-3.9698,-3.9597,-3.9583,-3.9569,-3.9556,-3.9703,-3.9703,-3.9804,-3.9804,-3.9805]},{"header":{"parameterUnit":"m.s-1","parameterCategory":1,"la1":30.2991,"la2":30.254,"lo1":-89.0895,"lo2":-89.0444,"dy":0.0017,"dx":0.0017,"nx":28,"ny":28,"refTime":"2024-10-06T03:00:00:Z","depth":0,"parameterNumber":3,"parameterNumberName":"V-component_of_WINDS"},"data":[0,0,0,0,0,0,0,0,0,0,0,0,0,0,0,0,0,0,0,0,0,0,0,0,0,0,0,0,0,0,0,0,0,0,0,0,0,0,0,0,0,0,0,0,0,0,0,0,0,0,0,0,0,0,0,0,0,0,-2.4967,-2.4967,0,-2.5017,-2.5017,-2.5018,-2.5023,-2.5022,-2.5022,-2.5021,-2.5074,-2.5076,-2.5078,0,0,0,0,0,0,0,0,0,0,0,0,0,-2.4878,-2.488,-2.4967,-2.4967,-2.4968,-2.5017,-2.5017,-2.5018,-2.5023,-2.5022,-2.5021,-2.5021,-2.5073,-2.5075,-2.5078,0,0,0,0,0,0,0,0,0,0,0,0,0,-2.4921,-2.4881,-2.4967,-2.4976,-2.4977,-2.5016,-2.5017,-2.5018,-2.5023,-2.5022,-2.5021,-2.5021,-2.5073,-2.5075,-2.5078,-2.5111,0,0,-2.5087,-2.5088,0,0,0,0,0,0,0,0,-2.4919,-2.4925,-2.4974,-2.4976,-2.4977,-2.5013,-2.5006,-2.5049,-2.5023,-2.5006,-2.5021,-2.502,-2.5054,-2.5059,-2.507,-2.5114,-2.5116,-2.5087,-2.5089,-2.509,-2.5091,0,0,0,0,0,0,0,-2.4916,-2.4923,-2.4986,-2.4975,-2.4977,-2.4979,-2.4984,-2.5014,-2.5034,-2.5007,-2.5008,-2.5013,-2.5055,-2.5067,-2.5071,-2.5117,-2.5087,-2.5089,-2.5091,-2.5092,-2.5195,-2.5196,0,0,0,0,0,0,-2.4911,-2.492,-2.4985,-2.4988,-2.4945,-2.4981,-2.4987,-2.5002,-2.5033,-2.5037,-2.5014,-2.5013,-2.5062,-2.5068,-2.5073,-2.5117,-2.509,-2.5093,-2.5094,-2.5194,-2.5195,-2.5196,0,0,0,0,0,0,-2.4909,-2.4917,-2.4983,-2.4954,-2.4963,-2.4984,-2.5,-2.5003,-2.5015,-2.5039,-2.5042,-2.5022,-2.5062,-2.5069,-2.5103,-2.5118,-2.5094,-2.5096,-2.5193,-2.5194,-2.5196,-2.5203,0,0,0,0,0,0,-2.4906,-2.4916,-2.4928,-2.4954,-2.4964,-2.5011,-2.5001,-2.5005,-2.502,-2.502,-2.5048,-2.5051,-2.5062,-2.5098,-2.5105,-2.5122,-2.5099,-2.5191,-2.5193,-2.5195,-2.5201,-2.5204,-2.5207,0,0,0,0,0,-2.4903,-2.4927,-2.4928,-2.4936,-2.498,-2.5011,-2.5017,-2.5028,-2.5021,-2.5034,-2.505,-2.5051,-2.5115,-2.5102,-2.511,-2.5127,-2.519,-2.5193,-2.5195,-2.52,-2.5204,-2.5207,0,0,0,0,0,0,-2.4902,-2.4931,-2.4932,-2.4966,-2.4986,-2.5012,-2.5029,-2.5032,-2.5055,-2.5054,-2.5067,-2.5073,-2.5107,-2.512,-2.5105,-2.5163,-2.5152,-2.5156,-2.5153,-2.5157,-2.516,-2.5157,-2.5101,0,0,0,0,0,-2.4905,-2.4928,-2.4953,-2.498,-2.499,-2.5008,-2.5022,-2.5029,-2.5051,-2.506,-2.5077,-2.5099,-2.5125,-2.5141,-2.5166,-2.5203,-2.5211,-2.5219,-2.5222,-2.5224,-2.5228,-2.5252,-2.5257,-2.5204,-2.5204,-2.5204,0,0,-2.4913,-2.4932,-2.4945,-2.498,-2.4997,-2.5022,-2.5015,-2.504,-2.506,-2.5064,-2.5097,-2.5111,-2.5137,-2.5173,-2.519,-2.5185,-2.5245,-2.5227,-2.5229,-2.5232,-2.5255,-2.526,-2.5264,-2.5205,-2.5205,-2.5205,0,0,-2.494,-2.4955,-2.4981,-2.4998,-2.5024,-2.5036,-2.5042,-2.5069,-2.5078,-2.5112,-2.5117,-2.514,-2.5183,-2.5202,-2.5217,-2.5254,-2.5257,-2.5262,-2.5277,-2.53,-2.5305,-2.5308,-2.5325,-2.533,-2.5265,-2.5265,-2.5265,0,-2.4946,-2.4983,-2.4994,-2.502,-2.5037,-2.5042,-2.5069,-2.5086,-2.5118,-2.513,-2.5124,-2.518,-2.5197,-2.524,-2.5249,-2.526,-2.527,-2.5259,-2.5303,-2.5307,-2.5311,-2.5326,-2.5332,-2.5266,-2.5266,-2.5265,-2.5265,0,-2.4991,-2.5017,-2.5034,-2.5067,-2.5085,-2.5111,-2.5128,-2.5145,-2.5151,-2.5165,-2.5201,-2.5222,-2.5252,-2.5263,-2.5268,-2.5307,-2.5304,-2.53,-2.529,-2.5316,-2.5331,-2.5337,-2.5267,-2.5266,-2.5266,-2.5266,0,0,-2.5017,-2.5057,-2.5063,-2.508,-2.5109,-2.513,-2.5158,-2.5188,-2.5204,-2.5227,-2.5253,-2.529,-2.5288,-2.5305,-2.5313,-2.5333,-2.5365,-2.5328,-2.5329,-2.5336,-2.5413,-2.5417,-2.5423,-2.5366,-2.5368,-2.5368,-2.5412,0,-2.5049,-2.5099,-2.5111,-2.5155,-2.5181,-2.5187,-2.5212,-2.5234,-2.5248,-2.5272,-2.5287,-2.5315,-2.5308,-2.532,-2.5339,-2.5357,-2.5381,-2.5354,-2.5393,-2.5394,-2.5388,-2.5431,-2.5434,-2.5474,-2.5417,-2.5418,-2.5419,0,-2.5093,-2.5118,-2.5164,-2.5194,-2.5205,-2.5227,-2.5258,-2.528,-2.5306,-2.5315,-2.5336,-2.5343,-2.5374,-2.5362,-2.5407,-2.5388,-2.5405,-2.5416,-2.5418,-2.5424,-2.5409,-2.544,-2.5487,-2.5494,-2.5428,-2.5427,-2.5426,0,-2.5111,-2.5156,-2.5191,-2.5204,-2.5238,-2.5254,-2.527,-2.5295,-2.5313,-2.534,-2.5352,-2.5382,-2.5399,-2.5422,-2.5438,-2.5427,-2.5483,-2.5471,-2.5494,-2.5493,-2.5506,-2.5506,-2.5559,-2.5513,-2.5513,-2.5513,-2.5513,0,-2.5147,-2.5175,-2.52,-2.5221,-2.5254,-2.5269,-2.5302,-2.5317,-2.534,-2.5366,-2.5373,-2.5397,-2.5415,-2.5442,-2.5454,-2.5492,-2.5499,-2.5509,-2.5512,-2.5509,-2.5509,-2.5522,-2.5521,-2.5515,-2.5514,-2.5514,-2.5514,0,-2.5173,-2.519,-2.5228,-2.5259,-2.5267,-2.5291,-2.5317,-2.534,-2.5354,-2.5387,-2.5395,-2.5419,-2.5451,-2.5469,-2.5509,-2.5518,-2.5561,-2.5562,-2.5553,-2.5555,-2.5577,-2.5576,-2.5643,-2.5654,-2.5598,-2.5599,-2.5599,0,-2.5195,-2.5218,-2.5251,-2.527,-2.5285,-2.5314,-2.5333,-2.5349,-2.5369,-2.5402,-2.5421,-2.5454,-2.5482,-2.5535,-2.5556,-2.5588,-2.5591,-2.5612,-2.5596,-2.5594,-2.5595,-2.5594,-2.5598,-2.5616,-2.5616,-2.5617,-2.5617,0,-2.5234,-2.5242,-2.527,-2.5301,-2.5325,-2.535,-2.5375,-2.5389,-2.541,-2.5432,-2.5466,-2.5488,-2.5531,-2.5565,-2.5599,-2.5616,-2.5621,-2.5622,-2.5629,-2.5628,-2.5623,-2.5629,-2.5563,-2.562,-2.562,-2.562,-2.562,-2.5619,-2.5261,-2.5283,-2.5311,-2.5342,-2.5363,-2.5387,-2.5411,-2.5429,-2.5458,-2.5494,-2.5502,-2.5539,-2.5567,-2.5614,-2.5632,-2.5663,-2.5658,-2.5668,-2.5671,-2.5674,-2.5677,-2.5616,-2.5668,-2.5668,-2.5668,-2.5668,-2.5668,0,-2.5303,-2.5322,-2.535,-2.5387,-2.5412,-2.5414,-2.5443,-2.5464,-2.5497,-2.5523,-2.5551,-2.5592,-2.5626,-2.565,-2.5685,-2.5705,-2.5709,-2.5714,-2.5714,-2.5719,-2.5677,-2.5669,-2.5711,-2.5711,-2.5711,-2.5711,-2.5711,-2.5711,-2.5328,-2.5366,-2.5378,-2.5427,-2.5446,-2.5483,-2.55,-2.5523,-2.5545,-2.559,-2.5619,-2.5635,-2.5661,-2.5699,-2.5731,-2.5738,-2.5752,-2.5758,-2.5765,-2.5726,-2.5721,-2.5717,-2.5709,-2.576,-2.576,-2.5804,-2.5805,-2.5805]}]]